Regional Weather Roundup
Issued by NWS

Home | Current Version | Previous Version | Graphics & Text | Print | Product List | Glossary On
Versions: 1 2 3 4 5 6 7 8 9 10 11 12 13 14 15 16 17 18 19 20 21 22 23 24 25 26 27 28 29 30 31 32 33 34 35 36 37 38 39 40 41 42 43 44 45 46 47 48 49 50
598
ASUS43 KDMX 250406
RWRIA

WEATHER ROUNDUP FOR IOWA
NATIONAL WEATHER SERVICE DES MOINES IA
1100 PM CDT MON APR 24 2017

NOTE: "FAIR" INDICATES FEW OR NO CLOUDS BELOW 12,000 FEET WITH NO
SIGNIFICANT WEATHER AND/OR OBSTRUCTIONS TO VISIBILITY.

* - THESE STATIONS ARE NOT NWS STATIONS...THUS NOT UNDER NWS
QUALITY CONTROL.  THEY ALSO DO NOT REPORT WEATHER SUCH
AS PRECIPITATION OR FOG.

IAZ001>003-012>014-020>022-031>034-043>046-250500-
   NORTHWEST IOWA

CITY           SKY/WX    TMP DP  RH WIND       PRES   REMARKS
CARROLL *      CLOUDY    63  43  48 S7        29.54F
CHEROKEE *     CLOUDY    60  44  54 W7        29.53R
DENISON *      CLOUDY    64  43  45 S13G18    29.54F
LE MARS *      PTCLDY    54  45  71 NW6       29.56R
ORANGE CITY *  PTCLDY    54  46  76 NW10      29.54S
SHELDON *      CLOUDY    55  45  67 NW10      29.52R
SIOUX CITY     CLEAR     54  43  66 NW13      29.54R
SPENCER        CLOUDY    64  41  42 S14       29.52S
STORM LAKE *   CLOUDY    63  41  45 S14       29.53S
$$

IAZ055>058-069>071-079>083-090>094-250500-
   SOUTHWEST IOWA

CITY           SKY/WX    TMP DP  RH WIND       PRES   REMARKS
ATLANTIC *     CLOUDY    66  43  42 S10       29.55F
AUDUBON *      CLOUDY    64  43  45 S8        29.56F
CLARINDA *       N/A     63  43  48 S8        29.59S
COUNCIL BLFS * CLEAR     63  45  51 S10       29.53F
CRESTON *      CLOUDY    63  39  42 S9        29.60S
HARLAN  *      MOCLDY    64  43  45 S10       29.57F
LAMONI         CLOUDY    62  36  37 S6        29.60F
RED OAK *      PTCLDY    63  43  48 S10       29.55F
SHENANDOAH *   CLEAR     63  43  48 SE12      29.55F
$$

IAZ047>049-059>061-072>074-084-250500-
   CENTRAL IOWA

CITY           SKY/WX    TMP DP  RH WIND       PRES   REMARKS
AMES           CLOUDY    61  35  37 S10       29.58S
ANKENY *       CLOUDY    61  36  39 S6        29.59F
BOONE *        CLOUDY    61  34  36 S9        29.57S
CHARITON *     MOCLDY    59  36  41 S9        29.60F
DES MOINES     CLOUDY    64  35  34 S8        29.59F
GRINNELL*      CLEAR     59  32  36 SE12      29.63F
KNOXVILLE *    PTCLDY    61  34  36 SE8       29.60F
MARSHALLTOWN   CLEAR     60  34  37 SE12      29.60F
NEWTON *       CLEAR     54  32  43 SE9       29.60F
PELLA *        PTCLDY    61  32  34 SE6       29.62F
PERRY *        CLOUDY    62  33  34 S9        29.57S
$$

IAZ004>006-015-016-023>025-035-036-250500-
   NORTH CENTRAL IOWA

CITY           SKY/WX    TMP DP  RH WIND       PRES   REMARKS
ALGONA *       CLOUDY    63  34  34 SE12      29.55S
CLARION *      CLOUDY    63  32  31 SE14      29.57S
ESTHERVILLE    CLOUDY    61  41  47 S13       29.52S
FORT DODGE *   CLOUDY    64  34  32 S8        29.57S
MASON CITY     CLOUDY    59  32  36 S12       29.59F
FOREST CITY *  CLOUDY    55  34  44 S10       29.57F
WEBSTER CITY * CLOUDY    61  34  36 S9        29.55F
IOWA FALLS *     N/A     57  33  39 SE9       29.60F
$$

IAZ007>011-017>019-026>030-037>042-050>054-066-250500-
   NORTHEAST IOWA

CITY           SKY/WX    TMP DP  RH WIND       PRES   REMARKS
CEDAR RAPIDS   CLEAR     57  32  38 SE5       29.65S
CHARLES CITY * PTCLDY    61  28  29 SE12      29.61F
CLINTON *      CLOUDY    63  32  31 SE12      29.69R
DECORAH *      MOCLDY    63  30  29 S10G17    29.63F
DUBUQUE        CLOUDY    61  31  32 S10       29.68S
MONTICELLO *   PTCLDY    57  34  41 SE5       29.67S
WATERLOO       CLEAR     61  30  31 SE12      29.61F
$$

IAZ064-065-067-068-078-250500-
   EAST CENTRAL IOWA

CITY           SKY/WX    TMP DP  RH WIND       PRES   REMARKS
DAVENPORT      MOCLDY    61  30  31 SE10      29.69R
IOWA CITY      CLEAR     60  32  34 SE3       29.68S
MT. PLEASANT * CLEAR     56  32  40 SE7       29.67F
MUSCATINE *    CLOUDY    55  32  41 CALM      29.68R
QUAD CITIES      N/A     62  30  29 MISG      29.68R
$$

IAZ062-063-075>077-085>089-095>099-250500-
   SOUTHEAST IOWA

CITY           SKY/WX    TMP DP  RH WIND       PRES   REMARKS
BURLINGTON     CLEAR     63  32  31 S10       29.67S
FAIRFIELD *    CLEAR     61  30  31 SE10      29.65S
FORT MADISON * CLEAR     63  30  29 S8        29.68S
KEOKUK *       CLEAR     61  30  31 SE6       29.66S
OSKALOOSA *      N/A     57  32  39 SE10      29.64S
CENTERVILLE *    N/A     55  34  44 CALM      29.65S
OTTUMWA        PTCLDY    61  32  33 SE10      29.64S
WASHINGTON *   CLEAR     57  32  38 S8        29.67F
$$

ABBREVIATIONS USED IN REMARKS
   TC - TEMPERATURES IN CELSIUS
  WCI - WIND CHILL INDEX
   HX - HEAT INDEX
  VSB - VISIBILITY
$$





USA.gov is the U.S. government's official web portal to all federal, state and local government web resources and services.